Saipan, MP

11:57 AM ChST on September 24, 2017 (GMT +1000)
Saipan International

Weather History for PGSN - January, 2013

Change the Weather History Date:

Tuesday, January 29, 2013

  Actual Average Record
Temperature  
Mean Temperature 78 °F -  
Max Temperature 84 °F 82 °F 100 °F (1998)
Min Temperature 73 °F 74 °F 72 °F (2012)
Cooling Degree Days 14    
Growing Degree Days 28 (Base 50)    
Moisture  
Dew Point 71 °F    
Average Humidity 79    
Maximum Humidity 91    
Minimum Humidity 67    
Precipitation  
Precipitation 0.13 in - - ()
Sea Level Pressure  
Sea Level Pressure 30.03 in    
Wind  
Wind Speed 13 mph (NE)    
Max Wind Speed 22 mph    
Max Gust Speed 28 mph    
Visibility 10 miles    
Events Rain    
Averages and records for this station are not official NWS values.
T = Trace of Precipitation, MM = Missing Value Source: NWS Daily Summary

Daily Weather History Graph

Daily Weather History Graph

Search for Another Location

Airport or City:

Trip Planner

Search our weather history database for the weather conditions in past years. The results will help you decide how hot, cold, wet, or windy it might be!

Date:

Astronomy

Jan. 29, 2013 Rise Set
Actual Time 6:46 AM ChST 6:13 PM ChST
Civil Twilight 6:24 AM ChST 6:36 PM ChST
Nautical Twilight 5:58 AM ChST 7:02 PM ChST
Astronomical Twilight 5:32 AM ChST 7:27 PM ChST
Moon 7:59 PM ChST (1/29) 7:48 AM ChST (1/29)
Length of Visible Light 12h 12m
Length of Day
11h 27m
Waning Gibbous, 96% of the Moon is Illuminated
Jan 29
Waning Gibbous
Feb 3
Last Quarter
Feb 10
New
Feb 18
First Quarter
Feb 26
Full

Hourly Weather History & Observations

Time (ChST) Temp. Heat Index Dew Point Humidity Pressure Visibility Wind Dir Wind Speed Gust Speed Precip Events Conditions
12:54 AM 75.0 °F - 69.1 °F 82% 30.03 in 9.0 mi NNE 11.5 mph - 0.02 in Rain Light Rain
1:54 AM 75.9 °F - 70.0 °F 82% 30.01 in 10.0 mi NE 8.1 mph - 0.03 in   Scattered Clouds
2:54 AM 75.9 °F - 70.0 °F 82% 30.00 in 10.0 mi NE 8.1 mph - N/A   Scattered Clouds
3:54 AM 75.9 °F - 69.1 °F 79% 30.00 in 10.0 mi NE 10.4 mph - N/A   Mostly Cloudy
4:54 AM 75.0 °F - 69.1 °F 82% 30.01 in 6.0 mi NNE 16.1 mph 26.5 mph 0.00 in Rain Light Rain
5:54 AM 73.9 °F - 70.0 °F 87% 30.02 in 10.0 mi North 6.9 mph - 0.02 in   Overcast
6:54 AM 75.9 °F - 71.1 °F 85% 30.04 in 10.0 mi NE 8.1 mph - 0.00 in   Overcast
7:54 AM 78.1 °F - 71.1 °F 79% 30.06 in 10.0 mi NE 12.7 mph - N/A   Scattered Clouds
8:54 AM 79.0 °F - 71.1 °F 77% 30.08 in 10.0 mi NE 15.0 mph - N/A   Overcast
9:54 AM 80.1 °F 83.8 °F 72.0 °F 76% 30.08 in 10.0 mi NE 15.0 mph - N/A   Overcast
10:54 AM 81.0 °F 86.2 °F 73.9 °F 79% 30.06 in 10.0 mi ENE 16.1 mph - 0.01 in   Overcast
11:54 AM 84.0 °F 89.6 °F 72.0 °F 67% 30.04 in 10.0 mi ENE 20.7 mph 26.5 mph N/A   Mostly Cloudy
12:54 PM 82.9 °F 87.5 °F 71.1 °F 67% 30.01 in 10.0 mi ENE 20.7 mph 27.6 mph N/A   Mostly Cloudy
1:54 PM 81.0 °F 84.4 °F 70.0 °F 69% 29.99 in 10.0 mi ENE 19.6 mph - N/A   Mostly Cloudy
2:34 PM 80.6 °F 83.9 °F 69.8 °F 70% 29.92 in 10.0 mi NE 19.6 mph - N/A   Overcast
2:54 PM 80.1 °F 83.2 °F 70.0 °F 71% 29.99 in 10.0 mi NE 21.9 mph 25.3 mph N/A   Overcast
3:54 PM 81.0 °F 84.4 °F 70.0 °F 69% 30.00 in 10.0 mi NE 13.8 mph 21.9 mph N/A   Mostly Cloudy
4:54 PM 77.0 °F - 71.1 °F 82% 30.01 in 10.0 mi NE 17.3 mph 27.6 mph N/A   Mostly Cloudy
5:54 PM 73.9 °F - 71.1 °F 91% 30.03 in 5.0 mi NE 9.2 mph - 0.05 in Rain Light Rain
6:54 PM 75.9 °F - 70.0 °F 82% 30.03 in 10.0 mi NE 15.0 mph 24.2 mph 0.00 in   Mostly Cloudy
7:54 PM 77.0 °F - 70.0 °F 79% 30.04 in 10.0 mi ENE 20.7 mph 26.5 mph 0.00 in Rain Light Rain
8:54 PM 75.9 °F - 71.1 °F 85% 30.06 in 10.0 mi NE 15.0 mph - 0.00 in   Mostly Cloudy
9:54 PM 75.9 °F - 70.0 °F 82% 30.08 in 10.0 mi NE 15.0 mph - N/A   Mostly Cloudy
10:54 PM 75.0 °F - 72.0 °F 90% 30.08 in 10.0 mi NE 11.5 mph - 0.00 in   Mostly Cloudy
11:54 PM 75.9 °F - 71.1 °F 85% 30.07 in 10.0 mi NE 13.8 mph - N/A   Overcast